Pampa, TX

2:25 AM CDT on August 23, 2017 (GMT -0500)
Perry Lefors

Weather History for KPPA - April, 2014

Change the Weather History Date:

Thursday, April 17, 2014

  Actual Average Record
Temperature  
Mean Temperature 46 °F -  
Max Temperature 51 °F 71 °F 87 °F (1979)
Min Temperature 40 °F 43 °F 32 °F (2013)
Degree Days  
Heating Degree Days 18    
Moisture  
Dew Point 33 °F    
Average Humidity 66    
Maximum Humidity 81    
Minimum Humidity 33    
Precipitation  
Precipitation 0.00 in - - ()
Sea Level Pressure  
Sea Level Pressure 30.16 in    
Wind  
Wind Speed 13 mph (ENE)    
Max Wind Speed 22 mph    
Max Gust Speed 30 mph    
Visibility 9 miles    
Events      
Averages and records for this station are not official NWS values.
T = Trace of Precipitation, MM = Missing Value Source: NWS Daily Summary

Daily Weather History Graph

Daily Weather History Graph

Search for Another Location

Airport or City:

Trip Planner

Search our weather history database for the weather conditions in past years. The results will help you decide how hot, cold, wet, or windy it might be!

Date:

Astronomy

Apr. 17, 2014 Rise Set
Actual Time 7:08 AM CDT 8:18 PM CDT
Civil Twilight 6:42 AM CDT 8:45 PM CDT
Nautical Twilight 6:10 AM CDT 9:16 PM CDT
Astronomical Twilight 5:38 AM CDT 9:49 PM CDT
Moon 11:02 PM CDT (4/17) 8:45 AM CDT (4/17)
Length of Visible Light 14h 03m
Length of Day
13h 10m
Waning Gibbous, 93% of the Moon is Illuminated
Apr 17
Waning Gibbous
Apr 22
Last Quarter
Apr 29
New
May 6
First Quarter
May 14
Full

Hourly Weather History & Observations

Time (CDT) Temp. Windchill Dew Point Humidity Pressure Visibility Wind Dir Wind Speed Gust Speed Precip Events Conditions
12:15 AM 53.1 °F - 24.8 °F 33% 29.99 in 10.0 mi ENE 15.0 mph 18.4 mph N/A   Clear
12:35 AM 49.1 °F - 26.2 °F 41% 30.01 in 1.0 mi NE 10.4 mph - N/A   Haze
12:55 AM 49.3 °F - 26.6 °F 41% 30.02 in 2.5 mi ENE 13.8 mph - N/A   Haze
1:15 AM 51.1 °F - 28.0 °F 41% 30.02 in 5.0 mi ENE 18.4 mph 24.2 mph N/A   Haze
1:35 AM 50.0 °F - 29.3 °F 45% 30.03 in 5.0 mi NE 16.1 mph - N/A   Haze
1:55 AM 47.7 °F - 30.7 °F 52% 30.02 in 3.0 mi ENE 20.7 mph 26.5 mph N/A   Haze
2:15 AM 46.9 °F - 32.0 °F 56% 30.01 in 10.0 mi ENE 21.9 mph 29.9 mph N/A   Clear
2:35 AM 46.4 °F 39.2 °F 32.4 °F 58% 30.02 in 10.0 mi ENE 18.4 mph 24.2 mph N/A   Clear
2:55 AM 45.7 °F 38.3 °F 32.7 °F 61% 30.03 in 5.0 mi ENE 18.4 mph - N/A   Haze
3:15 AM 45.3 °F 37.8 °F 32.9 °F 62% 30.03 in 5.0 mi ENE 18.4 mph 24.2 mph N/A   Haze
3:35 AM 44.6 °F 37.2 °F 32.9 °F 64% 30.02 in 2.5 mi ENE 17.3 mph - N/A   Haze
3:55 AM 44.2 °F 37.3 °F 32.9 °F 64% 30.03 in 10.0 mi ENE 15.0 mph - N/A   Clear
4:15 AM 43.9 °F 37.2 °F 32.9 °F 65% 30.03 in 10.0 mi ENE 13.8 mph - N/A   Clear
4:35 AM 43.7 °F 36.3 °F 32.7 °F 65% 30.03 in 10.0 mi East 16.1 mph - N/A   Clear
4:55 AM 43.9 °F 36.5 °F 32.5 °F 64% 30.03 in 10.0 mi East 16.1 mph 23.0 mph N/A   Scattered Clouds
5:15 AM 43.7 °F 36.9 °F 32.4 °F 64% 30.04 in 10.0 mi ENE 13.8 mph - N/A   Scattered Clouds
5:35 AM 43.5 °F 37.9 °F 32.5 °F 65% 30.06 in 10.0 mi ENE 10.4 mph - N/A   Scattered Clouds
5:55 AM 43.7 °F 36.9 °F 32.4 °F 64% 30.05 in 3.0 mi ENE 13.8 mph - N/A   Haze
6:15 AM 43.3 °F 36.1 °F 32.4 °F 65% 30.06 in 7.0 mi ENE 15.0 mph - N/A   Scattered Clouds
6:35 AM 43.2 °F 35.6 °F 32.5 °F 66% 30.06 in 10.0 mi ENE 16.1 mph - N/A   Mostly Cloudy
6:55 AM 42.8 °F 35.4 °F 32.5 °F 67% 30.07 in 3.0 mi ENE 15.0 mph - N/A   Haze
7:15 AM 42.6 °F 34.9 °F 32.4 °F 67% 30.08 in 2.5 mi ENE 16.1 mph 21.9 mph N/A   Haze
7:35 AM 42.8 °F 35.8 °F 32.4 °F 67% 30.12 in 4.0 mi NE 13.8 mph - N/A   Haze
7:55 AM 42.8 °F 35.4 °F 32.4 °F 67% 30.14 in 10.0 mi NE 15.0 mph 18.4 mph N/A   Overcast
8:15 AM 41.9 °F 34.3 °F 32.0 °F 68% 30.16 in 10.0 mi NE 15.0 mph 23.0 mph N/A   Overcast
8:35 AM 41.5 °F 33.2 °F 31.6 °F 68% 30.17 in 10.0 mi NE 17.3 mph - N/A   Overcast
8:55 AM 41.2 °F 32.7 °F 31.6 °F 69% 30.18 in 10.0 mi NE 17.3 mph - N/A   Overcast
9:15 AM 41.0 °F 32.5 °F 31.5 °F 69% 30.19 in 10.0 mi NE 17.3 mph - N/A   Overcast
9:35 AM 41.0 °F 32.2 °F 31.1 °F 68% 30.19 in 10.0 mi NE 18.4 mph - N/A   Overcast
9:55 AM 41.2 °F 32.1 °F 31.3 °F 68% 30.19 in 10.0 mi NE 19.6 mph - N/A   Overcast
10:15 AM 41.4 °F 32.4 °F 31.5 °F 68% 30.19 in 10.0 mi NE 19.6 mph 23.0 mph N/A   Overcast
10:35 AM 41.9 °F 33.4 °F 31.1 °F 66% 30.20 in 10.0 mi NE 18.4 mph - N/A   Overcast
10:55 AM 42.1 °F 33.9 °F 31.6 °F 67% 30.21 in 10.0 mi NE 17.3 mph - N/A   Overcast
11:15 AM 42.3 °F 34.1 °F 31.3 °F 65% 30.22 in 10.0 mi NE 17.3 mph - N/A   Overcast
11:35 AM 41.5 °F 33.2 °F 31.1 °F 66% 30.23 in 10.0 mi NE 17.3 mph 20.7 mph N/A   Overcast
11:55 AM 41.5 °F 33.2 °F 31.1 °F 66% 30.23 in 10.0 mi NNE 17.3 mph - N/A   Overcast
12:15 PM 41.9 °F 33.7 °F 30.7 °F 65% 30.23 in 10.0 mi NE 17.3 mph - N/A   Overcast
12:35 PM 41.5 °F 33.5 °F 30.9 °F 66% 30.23 in 10.0 mi NE 16.1 mph - N/A   Overcast
12:55 PM 41.4 °F 33.6 °F 31.6 °F 68% 30.23 in 10.0 mi NE 15.0 mph - N/A   Overcast
1:15 PM 40.6 °F 32.7 °F 34.3 °F 78% 30.23 in 7.0 mi NE 15.0 mph - N/A   Light Drizzle
1:35 PM 40.6 °F 33.4 °F 34.9 °F 80% 30.22 in 7.0 mi NE 12.7 mph - N/A   Light Drizzle
1:55 PM 40.6 °F 33.8 °F 35.2 °F 81% 30.23 in 7.0 mi NE 11.5 mph - N/A   Light Drizzle
2:15 PM 40.8 °F 34.1 °F 35.2 °F 80% 30.23 in 10.0 mi ENE 11.5 mph - N/A   Light Drizzle
2:35 PM 41.2 °F 35.0 °F 35.6 °F 81% 30.22 in 10.0 mi NE 10.4 mph - N/A   Light Drizzle
2:55 PM 41.9 °F 35.9 °F 35.6 °F 78% 30.22 in 10.0 mi NE 10.4 mph - N/A   Overcast
3:15 PM 42.4 °F 37.0 °F 36.0 °F 78% 30.22 in 10.0 mi ENE 9.2 mph - N/A   Overcast
3:35 PM 43.7 °F 37.7 °F 36.3 °F 75% 30.21 in 10.0 mi NE 11.5 mph - N/A   Overcast
3:55 PM 43.9 °F 38.3 °F 36.1 °F 74% 30.21 in 10.0 mi ENE 10.4 mph - N/A   Overcast
4:15 PM 44.2 °F 38.4 °F 36.0 °F 73% 30.20 in 10.0 mi ENE 11.5 mph - N/A   Overcast
4:35 PM 44.1 °F 39.0 °F 35.6 °F 72% 30.21 in 10.0 mi ENE 9.2 mph - N/A   Overcast
4:55 PM 44.1 °F 39.0 °F 35.4 °F 72% 30.21 in 10.0 mi East 9.2 mph - N/A   Overcast
5:15 PM 43.9 °F 40.5 °F 35.2 °F 72% 30.22 in 10.0 mi NE 5.8 mph - N/A   Overcast
5:35 PM 43.7 °F 40.3 °F 35.1 °F 72% 30.22 in 10.0 mi NE 5.8 mph - N/A   Overcast
5:55 PM 43.7 °F 41.1 °F 35.2 °F 72% 30.23 in 10.0 mi ENE 4.6 mph - N/A   Overcast
6:15 PM 43.7 °F 42.1 °F 35.1 °F 72% 30.22 in 10.0 mi ENE 3.5 mph - N/A   Overcast
6:35 PM 43.9 °F - 35.1 °F 71% 30.23 in 10.0 mi Calm Calm - N/A   Overcast
6:55 PM 44.1 °F - 34.9 °F 70% 30.23 in 10.0 mi Calm Calm - N/A   Overcast
7:15 PM 44.4 °F - 34.7 °F 69% 30.23 in 10.0 mi Calm Calm - N/A   Overcast
7:35 PM 44.6 °F - 34.7 °F 68% 30.22 in 10.0 mi Calm Calm - N/A   Overcast
7:55 PM 44.6 °F - 34.3 °F 67% 30.23 in 10.0 mi Calm Calm - N/A   Overcast
8:15 PM 44.6 °F - 34.5 °F 68% 30.23 in 10.0 mi Calm Calm - N/A   Overcast
8:35 PM 44.6 °F - 34.5 °F 68% 30.23 in 10.0 mi Calm Calm - N/A   Overcast
8:55 PM 44.6 °F - 34.3 °F 67% 30.23 in 10.0 mi Calm Calm - N/A   Overcast
9:15 PM 44.6 °F - 34.7 °F 68% 30.24 in 10.0 mi Calm Calm - N/A   Overcast
9:35 PM 44.8 °F - 34.5 °F 67% 30.25 in 10.0 mi Calm Calm - N/A   Overcast
9:55 PM 44.1 °F - 34.3 °F 69% 30.25 in 10.0 mi Calm Calm - N/A   Overcast
10:15 PM 44.2 °F - 34.9 °F 70% 30.25 in 10.0 mi Calm Calm - N/A   Overcast
10:35 PM 44.6 °F 43.1 °F 34.7 °F 68% 30.25 in 10.0 mi SE 3.5 mph - N/A   Overcast
10:55 PM 45.1 °F 43.7 °F 34.7 °F 67% 30.25 in 10.0 mi SE 3.5 mph - N/A   Overcast
11:15 PM 45.1 °F 41.4 °F 34.7 °F 67% 30.25 in 10.0 mi SE 6.9 mph - N/A   Overcast
11:35 PM 45.3 °F 42.3 °F 34.7 °F 66% 30.25 in 10.0 mi SE 5.8 mph - N/A   Overcast
11:55 PM 45.0 °F 41.8 °F 34.7 °F 67% 30.25 in 10.0 mi SSE 5.8 mph - N/A   Overcast